User: anonymous   Login
Location: Unspecified
(0.0000°N, 0.0000°E)
Time: 05:01:38
(UTC+00:00)
Language:

SBIRS GEO 2 (USA 241) - Orbit

View from above orbital plane
View from above orbital plane
View from above satellite
View from above satellite

Ground track
Ground track

The orbit data is extracted from the following two-line orbital elements,

1 39120U 13011A   18196.03694482 0.00000000  00000-0  00000-0 0    05
2 39120   3.0695 326.7537 0005031 338.0687  21.9114  1.00270000    05
Epoch (UTC): 15 July 2018 00:53:12
Eccentricity: 0.0005031
inclination: 3.0695°
perigee height: 35765 km
apogee height: 35808 km
right ascension of ascending node: 326.7537°
argument of perigee: 338.0687°
revolutions per day: 1.00270000
mean anomaly at epoch: 21.9114°
orbit number at epoch: 0

The dashed part of the orbit path shows where the satellite is in the earth's shadow,  

DLR